This is the latest recevied weather packets stored in our database for station/object KC4GS-13. If no packets are shown the sender has not sent any weather packets the latest 10 day(s).
| Time | Temp. | Humidity | Pressure | Rain* | Wind** | Luminosity | Snow |
|---|---|---|---|---|---|---|---|
| 1777654439 | 19.44° C | 66% | 1014.8 hPa | 0 mm | - | 286 W/m² | - |
| 1777654137 | 19.44° C | 67% | 1015 hPa | 0 mm | - | 303 W/m² | - |
| 1777653835 | 19.44° C | 67% | 1014.8 hPa | 0 mm | - | 271 W/m² | - |
| 1777653530 | 18.89° C | 68% | 1014.9 hPa | 0 mm | - | 269 W/m² | - |
| 1777653227 | 18.33° C | 68% | 1014.9 hPa | 0 mm | - | 237 W/m² | - |
| 1777652924 | 18.33° C | 69% | 1015 hPa | 0 mm | - | 193 W/m² | - |
| 1777652620 | 17.78° C | 69% | 1015.1 hPa | 0 mm | - | 170 W/m² | - |
| 1777652317 | 17.78° C | 70% | 1014.9 hPa | 0 mm | - | 143 W/m² | - |
| 1777652014 | 18.33° C | 68% | 1014.8 hPa | 0 mm | - | 145 W/m² | - |
| 1777651711 | 18.33° C | 67% | 1014.8 hPa | 0 mm | - | 143 W/m² | - |
| 1777651407 | 18.33° C | 67% | 1014.9 hPa | 0 mm | - | 154 W/m² | - |
| 1777651105 | 18.33° C | 66% | 1014.7 hPa | 0 mm | - | 184 W/m² | - |
| 1777650802 | 18.33° C | 66% | 1014.6 hPa | 0 mm | - | 208 W/m² | - |
| 1777650498 | 18.33° C | 66% | 1014.9 hPa | 0 mm | - | 225 W/m² | - |
| 1777650196 | 17.78° C | 67% | 1014.8 hPa | 0 mm | - | 278 W/m² | - |
| 1777649893 | 17.78° C | 69% | 1014.9 hPa | 0 mm | - | 237 W/m² | - |
| 1777649590 | 17.78° C | 69% | 1015.3 hPa | 0 mm | - | 194 W/m² | - |
| 1777649286 | 17.78° C | 68% | 1015.5 hPa | 0 mm | - | 162 W/m² | - |
| 1777648983 | 17.78° C | 68% | 1015.1 hPa | 0 mm | - | 171 W/m² | - |
| 1777648681 | 18.33° C | 67% | 1015.2 hPa | 0 mm | - | 217 W/m² | - |
| 1777648377 | 17.78° C | 66% | 1015.1 hPa | 0 mm | - | 226 W/m² | - |
| 1777648073 | 17.78° C | 67% | 1015 hPa | 0 mm | - | 192 W/m² | - |
| 1777647769 | 17.78° C | 66% | 1015.1 hPa | 0 mm | - | 169 W/m² | - |
| 1777647466 | 17.22° C | 66% | 1015.3 hPa | 0 mm | - | 115 W/m² | - |
| 1777647164 | 17.78° C | 67% | 1015.1 hPa | 0 mm | - | 107 W/m² | - |
* Rain latest hour (hover to see other rain measurements)
** Current wind speed in m/s (hover to see current wind gust speed)